Weather History for Highgate, VT

Change the Weather History Date:

Friday, February 22, 2013

  Actual Average (KPBG) Record (KPBG)
Temperature  
Mean Temperature 20 °F 23 °F  
Max Temperature 32 °F 33 °F 58 °F (1981)
Min Temperature 8 °F 14 °F -15 °F (1972)
Degree Days  
Heating Degree Days 45 42  
Month to date heating degree days 992  
Since 1 July heating degree days 5368  
Moisture  
Dew Point 17 °F    
Average Humidity 79    
Maximum Humidity 92    
Minimum Humidity 62    
Precipitation  
Precipitation 0.00 in - 0.73 in (1974)
Month to date precipitation  
Year to date precipitation  
Sea Level Pressure  
Sea Level Pressure 30.35 in    
Wind  
Wind Speed 2 mph (East)    
Max Wind Speed 6 mph    
Max Gust Speed -    
Visibility 10 miles    
Events      
T = Trace of Precipitation, MM = Missing Value Source: NWS Daily Summary

Daily Weather History Graph

Daily Weather History Graph

Search for Another Location

Airport:

Trip Planner

Search our weather history database for the weather conditions in past years. The results will help you decide how hot, cold, wet, or windy it might be!

Date:

Astronomy

Feb. 22, 2013 Rise Set
Actual Time 6:41 AM EST 5:30 PM EST
Civil Twilight 6:12 AM EST 6:00 PM EST
Nautical Twilight 5:37 AM EST 6:34 PM EST
Astronomical Twilight 5:04 AM EST 7:08 PM EST
Moon 2:34 PM EST (2/22) 4:30 AM EST (2/22)
Length of Visible Light 11h 48m
Length of Day
10h 48m
Waxing Gibbous, 90% of the Moon is Illuminated
Feb 22
Waxing Gibbous
Feb 25
Full
Mar 4
Last Quarter
Mar 11
New
Mar 19
First Quarter

Hourly Weather History & Observations

Time (EST) Temp. Windchill Dew Point Humidity Pressure Visibility Wind Dir Wind Speed Gust Speed Precip Events Conditions
12:15 AM 17.1 °F - 13.3 °F 85% 30.39 in 10.0 mi Calm Calm - N/A   Overcast
12:35 AM 17.1 °F 11.7 °F 13.5 °F 86% 30.40 in 10.0 mi ESE 3.5 mph - N/A   Overcast
12:55 AM 17.1 °F 11.7 °F 13.5 °F 86% 30.40 in 10.0 mi SE 3.5 mph - N/A   Overcast
1:15 AM 17.1 °F - 13.6 °F 86% 30.40 in 10.0 mi Calm Calm - N/A   Overcast
1:35 AM 15.1 °F 9.4 °F 11.7 °F 86% 30.40 in 10.0 mi ESE 3.5 mph - N/A   Mostly Cloudy
1:55 AM 14.2 °F 6.7 °F 11.1 °F 88% 30.39 in 10.0 mi ESE 4.6 mph - N/A   Scattered Clouds
2:15 AM 14.5 °F 7.1 °F 11.8 °F 89% 30.38 in 10.0 mi East 4.6 mph - N/A   Clear
2:35 AM 14.7 °F 5.9 °F 11.8 °F 88% 30.38 in 10.0 mi East 5.8 mph - N/A   Clear
2:55 AM 14.5 °F 7.1 °F 11.3 °F 87% 30.38 in 10.0 mi East 4.6 mph - N/A   Clear
3:15 AM 14.5 °F 8.8 °F 11.7 °F 88% 30.38 in 10.0 mi ESE 3.5 mph - N/A   Clear
3:35 AM 12.4 °F 6.3 °F 9.3 °F 88% 30.37 in 10.0 mi East 3.5 mph - N/A   Clear
3:55 AM 14.5 °F 7.1 °F 12.2 °F 90% 30.37 in 10.0 mi East 4.6 mph - N/A   Clear
4:15 AM 12.0 °F 2.7 °F 9.3 °F 89% 30.36 in 10.0 mi ESE 5.8 mph - N/A   Clear
4:35 AM 12.7 °F - 10.4 °F 90% 30.37 in 10.0 mi Calm Calm - N/A   Clear
4:55 AM 12.0 °F 5.9 °F 9.3 °F 89% 30.37 in 10.0 mi East 3.5 mph - N/A   Clear
5:15 AM 12.0 °F 5.9 °F 10.0 °F 92% 30.36 in 10.0 mi ESE 3.5 mph - N/A   Clear
5:35 AM 12.0 °F 5.9 °F 10.0 °F 92% 30.37 in 10.0 mi ESE 3.5 mph - N/A   Clear
5:55 AM 12.0 °F - 10.0 °F 92% 30.38 in 10.0 mi Calm Calm - N/A   Clear
6:15 AM 12.0 °F - 9.5 °F 90% 30.39 in 10.0 mi Calm Calm - N/A   Clear
6:35 AM 10.2 °F - 7.7 °F 90% 30.41 in 10.0 mi Calm Calm - N/A   Clear
7:15 AM 8.1 °F - 5.2 °F 88% 30.44 in 7.0 mi Calm Calm - N/A   Mostly Cloudy
7:35 AM 12.0 °F 4.1 °F 10.0 °F 92% 30.44 in 7.0 mi SSE 4.6 mph - N/A   Overcast
7:55 AM 13.1 °F - 10.9 °F 91% 30.44 in 10.0 mi Calm Calm - N/A   Overcast
8:15 AM 14.9 °F - 12.9 °F 92% 30.44 in 10.0 mi Calm Calm - N/A   Overcast
8:35 AM 17.1 °F - 14.9 °F 91% 30.44 in 7.0 mi Calm Calm - N/A   Overcast
8:55 AM 18.1 °F 11.3 °F 15.6 °F 90% 30.43 in 10.0 mi ESE 4.6 mph - N/A   Overcast
9:15 AM 19.4 °F 11.5 °F 16.5 °F 89% 30.43 in 10.0 mi ESE 5.8 mph - N/A   Overcast
9:35 AM 19.4 °F 12.8 °F 15.8 °F 86% 30.43 in 10.0 mi SE 4.6 mph - N/A   Overcast
9:55 AM 20.8 °F 14.4 °F 16.3 °F 83% 30.43 in 10.0 mi SE 4.6 mph - N/A   Overcast
10:15 AM 22.5 °F - 16.9 °F 79% 30.43 in 10.0 mi Calm Calm - N/A   Overcast
10:55 AM 27.1 °F - 20.1 °F 75% 30.42 in 10.0 mi Calm Calm - N/A   Overcast
11:15 AM 27.1 °F - 18.7 °F 70% 30.41 in 10.0 mi Calm Calm - N/A   Overcast
11:35 AM 27.7 °F - 19.0 °F 70% 30.40 in 10.0 mi Calm Calm - N/A   Overcast
11:55 AM 31.3 °F 27.9 °F 20.7 °F 65% 30.40 in 10.0 mi WNW 3.5 mph - N/A   Overcast
12:15 PM 31.1 °F 26.4 °F 20.5 °F 65% 30.40 in 10.0 mi West 4.6 mph - N/A   Overcast
12:35 PM 29.7 °F - 19.4 °F 66% 30.39 in 10.0 mi Calm Calm - N/A   Overcast
12:55 PM 29.8 °F 26.3 °F 20.1 °F 67% 30.38 in 10.0 mi WNW 3.5 mph - N/A   Overcast
1:15 PM 32.0 °F - 21.0 °F 64% 30.36 in 10.0 mi Calm Calm - N/A   Overcast
1:35 PM 32.0 °F 28.7 °F 20.1 °F 62% 30.36 in 10.0 mi NNW 3.5 mph - N/A   Scattered Clouds
1:55 PM 32.0 °F - 20.7 °F 63% 30.35 in 10.0 mi Calm Calm - N/A   Clear
2:15 PM 31.1 °F 27.7 °F 20.7 °F 65% 30.34 in 10.0 mi North 3.5 mph - N/A   Clear
2:35 PM 32.0 °F 28.7 °F 21.2 °F 64% 30.34 in 10.0 mi NNW 3.5 mph - N/A   Clear
2:55 PM 29.7 °F - 19.9 °F 67% 30.34 in 10.0 mi Calm Calm - N/A   Scattered Clouds
3:15 PM 29.7 °F - 19.9 °F 67% 30.33 in 10.0 mi Calm Calm - N/A   Overcast
3:35 PM 29.7 °F - 19.9 °F 67% 30.33 in 10.0 mi Calm Calm - N/A   Mostly Cloudy
3:55 PM 29.7 °F 24.7 °F 20.3 °F 68% 30.32 in 10.0 mi North 4.6 mph - N/A   Scattered Clouds
4:15 PM 28.6 °F 24.8 °F 20.1 °F 71% 30.31 in 10.0 mi North 3.5 mph - N/A   Scattered Clouds
4:35 PM 29.7 °F - 20.5 °F 69% 30.30 in 10.0 mi Calm Calm - N/A   Clear
4:55 PM 29.7 °F - 20.3 °F 68% 30.30 in 10.0 mi Calm Calm - N/A   Clear
5:15 PM 27.1 °F - 19.4 °F 73% 30.30 in 10.0 mi Calm Calm - N/A   Clear
5:35 PM 27.1 °F 21.8 °F 20.3 °F 75% 30.29 in 10.0 mi NNE 4.6 mph - N/A   Clear
6:15 PM 27.1 °F - 20.7 °F 77% 30.28 in 10.0 mi Calm Calm - N/A   Clear
6:35 PM 27.1 °F - 20.3 °F 75% 30.28 in 10.0 mi Calm Calm - N/A   Clear
6:55 PM 27.1 °F - 20.5 °F 76% 30.28 in 10.0 mi Calm Calm - N/A   Clear
7:15 PM 27.1 °F - 21.2 °F 78% 30.28 in 10.0 mi Calm Calm - N/A   Clear
7:35 PM 27.1 °F - 21.4 °F 79% 30.28 in 10.0 mi Calm Calm - N/A   Clear
7:55 PM 27.1 °F - 21.7 °F 80% 30.26 in 10.0 mi Calm Calm - N/A   Clear
8:15 PM 27.1 °F 21.8 °F 21.7 °F 80% 30.25 in 10.0 mi East 4.6 mph - N/A   Scattered Clouds
8:35 PM 27.1 °F 23.2 °F 21.7 °F 80% 30.25 in 10.0 mi East 3.5 mph - N/A   Mostly Cloudy
9:15 PM 27.1 °F 20.7 °F 21.2 °F 78% 30.24 in 10.0 mi East 5.8 mph - N/A   Mostly Cloudy
9:35 PM 27.1 °F 21.8 °F 20.8 °F 77% 30.24 in 10.0 mi ESE 4.6 mph - N/A   Scattered Clouds
10:15 PM 27.1 °F 21.8 °F 20.8 °F 77% 30.23 in 10.0 mi ESE 4.6 mph - N/A   Clear
10:35 PM 27.1 °F - 20.8 °F 77% 30.23 in 10.0 mi Calm Calm - N/A   Mostly Cloudy
10:55 PM 27.1 °F - 20.8 °F 77% 30.23 in 10.0 mi Calm Calm - N/A   Overcast
11:15 PM 27.1 °F - 21.2 °F 78% 30.23 in 10.0 mi Calm Calm - N/A   Overcast
11:35 PM 27.1 °F - 21.2 °F 78% 30.23 in 10.0 mi Calm Calm - N/A   Overcast
11:55 PM 27.1 °F - 22.1 °F 81% 30.22 in 10.0 mi Calm Calm - N/A   Overcast